Year,Month,Day,Hour,Minute,Value (Times are PST for temperature in C)
2015,06,25,00,00,15.40
2015,06,25,00,01,15.40
2015,06,25,00,02,15.40
2015,06,25,00,03,15.40
2015,06,25,00,04,15.40
2015,06,25,00,05,15.30
2015,06,25,00,06,15.30
2015,06,25,00,07,15.30
2015,06,25,00,08,15.30
2015,06,25,00,09,15.30
2015,06,25,00,10,15.30
2015,06,25,00,11,15.20
2015,06,25,00,12,15.20
2015,06,25,00,13,15.20
2015,06,25,00,14,15.20
2015,06,25,00,15,15.20
2015,06,25,00,16,15.20
2015,06,25,00,17,15.20
2015,06,25,00,18,15.10
2015,06,25,00,19,15.10
2015,06,25,00,20,15.10
2015,06,25,00,21,15.10
2015,06,25,00,22,15.10
2015,06,25,00,23,15.10
2015,06,25,00,24,15.10
2015,06,25,00,25,15.10
2015,06,25,00,26,15.00
2015,06,25,00,27,15.00
2015,06,25,00,28,15.00
2015,06,25,00,29,15.00
2015,06,25,00,30,14.90
2015,06,25,00,31,14.90
2015,06,25,00,32,14.90
2015,06,25,00,33,14.90
2015,06,25,00,34,14.90
2015,06,25,00,35,14.90
2015,06,25,00,36,14.90
2015,06,25,00,37,14.80
2015,06,25,00,38,14.80
2015,06,25,00,39,14.80
2015,06,25,00,40,14.80
2015,06,25,00,41,14.80
2015,06,25,00,42,14.80
2015,06,25,00,43,14.80
2015,06,25,00,44,14.80
2015,06,25,00,45,14.80
2015,06,25,00,46,14.80
2015,06,25,00,47,14.80
2015,06,25,00,48,14.80
2015,06,25,00,49,14.70
2015,06,25,00,50,14.70
2015,06,25,00,51,14.70
2015,06,25,00,52,14.70
2015,06,25,00,53,14.70
2015,06,25,00,54,14.70
2015,06,25,00,55,14.70
2015,06,25,00,56,14.70
2015,06,25,00,57,14.70
2015,06,25,00,58,14.70
2015,06,25,00,59,14.60
2015,06,25,01,00,14.60
2015,06,25,01,01,14.60
2015,06,25,01,02,14.60
2015,06,25,01,03,14.60
2015,06,25,01,04,14.60
2015,06,25,01,05,14.60
2015,06,25,01,06,14.60
2015,06,25,01,07,14.60
2015,06,25,01,08,14.60
2015,06,25,01,09,14.50
2015,06,25,01,10,14.50
2015,06,25,01,11,14.50
2015,06,25,01,12,14.50
2015,06,25,01,13,14.50
2015,06,25,01,14,14.50
2015,06,25,01,15,14.50
2015,06,25,01,16,14.50
2015,06,25,01,17,14.50
2015,06,25,01,18,14.50
2015,06,25,01,19,14.40
2015,06,25,01,20,14.40
2015,06,25,01,21,14.40
2015,06,25,01,22,14.40
2015,06,25,01,23,14.40
2015,06,25,01,24,14.40
2015,06,25,01,25,14.40
2015,06,25,01,26,14.30
2015,06,25,01,27,14.30
2015,06,25,01,28,14.30
2015,06,25,01,29,14.30
2015,06,25,01,30,14.30
2015,06,25,01,31,14.30
2015,06,25,01,32,14.30
2015,06,25,01,33,14.30
2015,06,25,01,34,14.30
2015,06,25,01,35,14.30
2015,06,25,01,36,14.30
2015,06,25,01,37,14.30
2015,06,25,01,38,14.20
2015,06,25,01,39,14.20
2015,06,25,01,40,14.20
2015,06,25,01,41,14.20
2015,06,25,01,42,14.20
2015,06,25,01,43,14.20
2015,06,25,01,44,14.20
2015,06,25,01,45,14.20
2015,06,25,01,46,14.20
2015,06,25,01,47,14.20
2015,06,25,01,48,14.20
2015,06,25,01,49,14.20
2015,06,25,01,50,14.20
2015,06,25,01,51,14.20
2015,06,25,01,52,14.20
2015,06,25,01,53,14.20
2015,06,25,01,54,14.20
2015,06,25,01,55,14.20
2015,06,25,01,56,14.20
2015,06,25,01,57,14.10
2015,06,25,01,58,14.10
2015,06,25,01,59,14.10
2015,06,25,02,00,14.10
2015,06,25,02,01,14.10
2015,06,25,02,02,14.00
2015,06,25,02,03,14.00
2015,06,25,02,04,14.00
2015,06,25,02,05,14.00
2015,06,25,02,06,14.00
2015,06,25,02,07,14.00
2015,06,25,02,08,14.00
2015,06,25,02,09,14.00
2015,06,25,02,10,14.00
2015,06,25,02,11,14.00
2015,06,25,02,12,14.00
2015,06,25,02,13,14.00
2015,06,25,02,14,14.00
2015,06,25,02,15,14.00
2015,06,25,02,16,14.00
2015,06,25,02,17,14.00
2015,06,25,02,18,14.00
2015,06,25,02,19,14.00
2015,06,25,02,20,14.00
2015,06,25,02,21,14.00
2015,06,25,02,22,14.00
2015,06,25,02,23,14.00
2015,06,25,02,24,14.00
2015,06,25,02,25,14.00
2015,06,25,02,26,14.00
2015,06,25,02,27,14.00
2015,06,25,02,28,14.00
2015,06,25,02,29,14.00
2015,06,25,02,30,14.00
2015,06,25,02,31,13.90
2015,06,25,02,32,13.90
2015,06,25,02,33,13.90
2015,06,25,02,34,13.90
2015,06,25,02,35,13.80
2015,06,25,02,36,13.80
2015,06,25,02,37,13.80
2015,06,25,02,38,13.80
2015,06,25,02,39,13.70
2015,06,25,02,40,13.70
2015,06,25,02,41,13.70
2015,06,25,02,42,13.70
2015,06,25,02,43,13.70
2015,06,25,02,44,13.70
2015,06,25,02,45,13.70
2015,06,25,02,46,13.70
2015,06,25,02,47,13.60
2015,06,25,02,48,13.60
2015,06,25,02,49,13.60
2015,06,25,02,50,13.60
2015,06,25,02,51,13.60
2015,06,25,02,52,13.60
2015,06,25,02,53,13.60
2015,06,25,02,54,13.60
2015,06,25,02,55,13.60
2015,06,25,02,56,13.60
2015,06,25,02,57,13.60
2015,06,25,02,58,13.50
2015,06,25,02,59,13.50
2015,06,25,03,00,13.50
2015,06,25,03,01,13.50
2015,06,25,03,02,13.50
2015,06,25,03,03,13.40
2015,06,25,03,04,13.40
2015,06,25,03,05,13.40
2015,06,25,03,06,13.40
2015,06,25,03,07,13.40
2015,06,25,03,08,13.40
2015,06,25,03,09,13.40
2015,06,25,03,10,13.40
2015,06,25,03,11,13.50
2015,06,25,03,12,13.50
2015,06,25,03,13,13.50
2015,06,25,03,14,13.60
2015,06,25,03,15,13.60
2015,06,25,03,16,13.60
2015,06,25,03,17,13.60
2015,06,25,03,18,13.60
2015,06,25,03,19,13.60
2015,06,25,03,20,13.60
2015,06,25,03,21,13.60
2015,06,25,03,22,13.60
2015,06,25,03,23,13.50
2015,06,25,03,24,13.50
2015,06,25,03,25,13.50
2015,06,25,03,26,13.40
2015,06,25,03,27,13.40
2015,06,25,03,28,13.40
2015,06,25,03,29,13.40
2015,06,25,03,30,13.40
2015,06,25,03,31,13.40
2015,06,25,03,32,13.40
2015,06,25,03,33,13.40
2015,06,25,03,34,13.40
2015,06,25,03,35,13.40
2015,06,25,03,36,13.40
2015,06,25,03,37,13.40
2015,06,25,03,38,13.40
2015,06,25,03,39,13.40
2015,06,25,03,40,13.40
2015,06,25,03,41,13.40
2015,06,25,03,42,13.30
2015,06,25,03,43,13.30
2015,06,25,03,44,13.30
2015,06,25,03,45,13.30
2015,06,25,03,46,13.30
2015,06,25,03,47,13.30
2015,06,25,03,48,13.20
2015,06,25,03,49,13.20
2015,06,25,03,50,13.20
2015,06,25,03,51,13.20
2015,06,25,03,52,13.20
2015,06,25,03,53,13.20
2015,06,25,03,54,13.20
2015,06,25,03,55,13.10
2015,06,25,03,56,13.10
2015,06,25,03,57,13.10
2015,06,25,03,58,13.10
2015,06,25,03,59,13.10
2015,06,25,04,00,13.10
2015,06,25,04,01,13.10
2015,06,25,04,02,13.00
2015,06,25,04,03,13.00
2015,06,25,04,04,13.00
2015,06,25,04,05,13.00
2015,06,25,04,06,12.90
2015,06,25,04,07,12.90
2015,06,25,04,08,13.00
2015,06,25,04,09,13.00
2015,06,25,04,10,13.00
2015,06,25,04,11,13.00
2015,06,25,04,12,13.00
2015,06,25,04,13,13.00
2015,06,25,04,14,13.00
2015,06,25,04,15,13.00
2015,06,25,04,16,13.00
2015,06,25,04,17,13.00
2015,06,25,04,18,13.00
2015,06,25,04,19,12.90
2015,06,25,04,20,13.00
2015,06,25,04,21,13.00
2015,06,25,04,22,13.00
2015,06,25,04,23,13.00
2015,06,25,04,24,13.10
2015,06,25,04,25,13.10
2015,06,25,04,26,13.10
2015,06,25,04,27,13.10
2015,06,25,04,28,13.10
2015,06,25,04,29,13.10
2015,06,25,04,30,13.10
2015,06,25,04,31,13.10
2015,06,25,04,32,13.10
2015,06,25,04,33,13.10
2015,06,25,04,34,13.10
2015,06,25,04,35,13.20
2015,06,25,04,36,13.20
2015,06,25,04,37,13.20
2015,06,25,04,38,13.20
2015,06,25,04,39,13.20
2015,06,25,04,40,13.10
2015,06,25,04,41,13.10
2015,06,25,04,42,13.10
2015,06,25,04,43,13.10
2015,06,25,04,44,13.10
2015,06,25,04,45,13.10
2015,06,25,04,46,13.10
2015,06,25,04,47,13.10
2015,06,25,04,48,13.10
2015,06,25,04,49,13.10
2015,06,25,04,50,13.10
2015,06,25,04,51,13.20
2015,06,25,04,52,13.20
2015,06,25,04,53,13.20
2015,06,25,04,54,13.20
2015,06,25,04,55,13.20
2015,06,25,04,56,13.20
2015,06,25,04,57,13.20
2015,06,25,04,58,13.20
2015,06,25,04,59,13.20
2015,06,25,05,00,13.20
2015,06,25,05,01,13.10
2015,06,25,05,02,13.10
2015,06,25,05,03,13.10
2015,06,25,05,04,13.10
2015,06,25,05,05,13.10
2015,06,25,05,06,13.10
2015,06,25,05,07,13.10
2015,06,25,05,08,13.10
2015,06,25,05,09,13.10
2015,06,25,05,10,13.10
2015,06,25,05,11,13.10
2015,06,25,05,12,13.10
2015,06,25,05,13,13.10
2015,06,25,05,14,13.10
2015,06,25,05,15,13.10
2015,06,25,05,16,13.10
2015,06,25,05,17,13.10
2015,06,25,05,18,13.10
2015,06,25,05,19,13.10
2015,06,25,05,20,13.10
2015,06,25,05,21,13.10
2015,06,25,05,22,13.10
2015,06,25,05,23,13.10
2015,06,25,05,24,13.10
2015,06,25,05,25,13.10
2015,06,25,05,26,13.10
2015,06,25,05,27,13.10
2015,06,25,05,28,13.10
2015,06,25,05,29,13.00
2015,06,25,05,30,13.00
2015,06,25,05,31,13.00
2015,06,25,05,32,13.00
2015,06,25,05,33,13.10
2015,06,25,05,34,13.10
2015,06,25,05,35,13.10
2015,06,25,05,36,13.10
2015,06,25,05,37,13.10
2015,06,25,05,38,13.20
2015,06,25,05,39,13.10
2015,06,25,05,40,13.10
2015,06,25,05,41,13.20
2015,06,25,05,42,13.20
2015,06,25,05,43,13.20
2015,06,25,05,44,13.10
2015,06,25,05,45,13.10
2015,06,25,05,46,13.10
2015,06,25,05,47,13.10
2015,06,25,05,48,13.10
2015,06,25,05,49,13.10
2015,06,25,05,50,13.00
2015,06,25,05,51,13.00
2015,06,25,05,52,13.00
2015,06,25,05,53,12.90
2015,06,25,05,54,12.90
2015,06,25,05,55,12.90
2015,06,25,05,56,12.90
2015,06,25,05,57,12.90
2015,06,25,05,58,12.80
2015,06,25,05,59,12.80
2015,06,25,06,00,12.80
2015,06,25,06,01,12.80
2015,06,25,06,02,12.80
2015,06,25,06,03,12.80
2015,06,25,06,04,12.80
2015,06,25,06,05,12.80
2015,06,25,06,06,12.80
2015,06,25,06,07,12.80
2015,06,25,06,08,12.80
2015,06,25,06,09,12.80
2015,06,25,06,10,12.80
2015,06,25,06,11,12.80
2015,06,25,06,12,12.90
2015,06,25,06,13,12.90
2015,06,25,06,14,12.90
2015,06,25,06,15,12.90
2015,06,25,06,16,12.90
2015,06,25,06,17,12.90
2015,06,25,06,18,12.90
2015,06,25,06,19,13.00
2015,06,25,06,20,13.00
2015,06,25,06,21,13.00
2015,06,25,06,22,13.00
2015,06,25,06,23,13.00
2015,06,25,06,24,13.00
2015,06,25,06,25,13.00
2015,06,25,06,26,13.00
2015,06,25,06,27,13.00
2015,06,25,06,28,13.00
2015,06,25,06,29,13.00
2015,06,25,06,30,13.00
2015,06,25,06,31,13.10
2015,06,25,06,32,13.10
2015,06,25,06,33,13.10
2015,06,25,06,34,13.10
2015,06,25,06,35,13.20
2015,06,25,06,36,13.20
2015,06,25,06,37,13.20
2015,06,25,06,38,13.20
2015,06,25,06,39,13.20
2015,06,25,06,40,13.20
2015,06,25,06,41,13.30
2015,06,25,06,42,13.30
2015,06,25,06,43,13.30
2015,06,25,06,44,13.30
2015,06,25,06,45,13.30
2015,06,25,06,46,13.40
2015,06,25,06,47,13.40
2015,06,25,06,48,13.40
2015,06,25,06,49,13.50
2015,06,25,06,50,13.50
2015,06,25,06,51,13.50
2015,06,25,06,52,13.60
2015,06,25,06,53,13.60
2015,06,25,06,54,13.60
2015,06,25,06,55,13.70
2015,06,25,06,56,13.80
2015,06,25,06,57,13.80
2015,06,25,06,58,13.90
2015,06,25,06,59,14.00
2015,06,25,07,00,14.10
2015,06,25,07,01,14.20
2015,06,25,07,02,14.30
2015,06,25,07,03,14.40
2015,06,25,07,04,14.50
2015,06,25,07,05,14.60
2015,06,25,07,06,14.70
2015,06,25,07,07,14.80
2015,06,25,07,08,14.90
2015,06,25,07,09,15.10
2015,06,25,07,10,15.20
2015,06,25,07,11,15.30
2015,06,25,07,12,15.50
2015,06,25,07,13,15.60
2015,06,25,07,14,15.70
2015,06,25,07,15,15.80
2015,06,25,07,16,16.00
2015,06,25,07,17,16.10
2015,06,25,07,18,16.20
2015,06,25,07,19,16.30
2015,06,25,07,20,16.40
2015,06,25,07,21,16.50
2015,06,25,07,22,16.60
2015,06,25,07,23,16.70
2015,06,25,07,24,16.80
2015,06,25,07,25,16.80
2015,06,25,07,26,16.90
2015,06,25,07,27,17.00
2015,06,25,07,28,17.10
2015,06,25,07,29,17.20
2015,06,25,07,30,17.30
2015,06,25,07,31,17.40
2015,06,25,07,32,17.50
2015,06,25,07,33,17.60
2015,06,25,07,34,17.60
2015,06,25,07,35,17.70
2015,06,25,07,36,17.80
2015,06,25,07,37,17.80
2015,06,25,07,38,17.90
2015,06,25,07,39,18.00
2015,06,25,07,40,18.10
2015,06,25,07,41,18.20
2015,06,25,07,42,18.20
2015,06,25,07,43,18.30
2015,06,25,07,44,18.40
2015,06,25,07,45,18.40
2015,06,25,07,46,18.50
2015,06,25,07,47,18.50
2015,06,25,07,48,18.60
2015,06,25,07,49,18.60
2015,06,25,07,50,18.70
2015,06,25,07,51,18.80
2015,06,25,07,52,18.80
2015,06,25,07,53,18.90
2015,06,25,07,54,18.90
2015,06,25,07,55,19.00
2015,06,25,07,56,19.00
2015,06,25,07,57,19.10
2015,06,25,07,58,19.10
2015,06,25,07,59,19.20
2015,06,25,08,00,19.20
2015,06,25,08,01,19.20
2015,06,25,08,02,19.20
2015,06,25,08,03,19.20
2015,06,25,08,04,19.30
2015,06,25,08,05,19.30
2015,06,25,08,06,19.30
2015,06,25,08,07,19.30
2015,06,25,08,08,19.30
2015,06,25,08,09,19.30
2015,06,25,08,10,19.30
2015,06,25,08,11,19.30
2015,06,25,08,12,19.30
2015,06,25,08,13,19.30
2015,06,25,08,14,19.40
2015,06,25,08,15,19.40
2015,06,25,08,16,19.40
2015,06,25,08,17,19.40
2015,06,25,08,18,19.40
2015,06,25,08,19,19.40
2015,06,25,08,20,19.40
2015,06,25,08,21,19.60
2015,06,25,08,22,19.70
2015,06,25,08,23,19.70
2015,06,25,08,24,19.70
2015,06,25,08,25,19.80
2015,06,25,08,26,19.80
2015,06,25,08,27,19.80
2015,06,25,08,28,19.80
2015,06,25,08,29,19.90
2015,06,25,08,30,19.90
2015,06,25,08,31,20.00
2015,06,25,08,32,20.10
2015,06,25,08,33,20.20
2015,06,25,08,34,20.30
2015,06,25,08,35,20.40
2015,06,25,08,36,20.50
2015,06,25,08,37,20.60
2015,06,25,08,38,20.70
2015,06,25,08,39,20.80
2015,06,25,08,40,20.80
2015,06,25,08,41,20.80
2015,06,25,08,42,20.80
2015,06,25,08,43,20.90
2015,06,25,08,44,20.90
2015,06,25,08,45,20.90
2015,06,25,08,46,20.90
2015,06,25,08,47,20.90
2015,06,25,08,48,20.90
2015,06,25,08,49,20.90
2015,06,25,08,50,20.80
2015,06,25,08,51,20.80
2015,06,25,08,52,20.80
2015,06,25,08,53,20.90
2015,06,25,08,54,20.90
2015,06,25,08,55,20.90
2015,06,25,08,56,20.90
2015,06,25,08,57,21.00
2015,06,25,08,58,21.00
2015,06,25,08,59,21.10
2015,06,25,09,00,21.10
2015,06,25,09,01,21.10
2015,06,25,09,02,21.10
2015,06,25,09,03,21.20
2015,06,25,09,04,21.30
2015,06,25,09,05,21.30
2015,06,25,09,06,21.30
2015,06,25,09,07,21.30
2015,06,25,09,08,21.30
2015,06,25,09,09,21.30
2015,06,25,09,10,21.30
2015,06,25,09,11,21.40
2015,06,25,09,12,21.50
2015,06,25,09,13,21.60
2015,06,25,09,14,21.60
2015,06,25,09,15,21.70
2015,06,25,09,16,21.60
2015,06,25,09,17,21.60
2015,06,25,09,18,21.60
2015,06,25,09,19,21.60
2015,06,25,09,20,21.60
2015,06,25,09,21,21.60
2015,06,25,09,22,21.50
2015,06,25,09,23,21.50
2015,06,25,09,24,21.50
2015,06,25,09,25,21.50
2015,06,25,09,26,21.40
2015,06,25,09,27,21.40
2015,06,25,09,28,21.40
2015,06,25,09,29,21.40
2015,06,25,09,30,21.40
2015,06,25,09,31,21.30
2015,06,25,09,32,21.30
2015,06,25,09,33,21.20
2015,06,25,09,34,21.20
2015,06,25,09,35,21.20
2015,06,25,09,36,21.10
2015,06,25,09,37,21.10
2015,06,25,09,38,21.10
2015,06,25,09,39,21.10
2015,06,25,09,40,21.10
2015,06,25,09,41,21.20
2015,06,25,09,42,21.20
2015,06,25,09,43,21.20
2015,06,25,09,44,21.20
2015,06,25,09,45,21.20
2015,06,25,09,46,21.30
2015,06,25,09,47,21.30
2015,06,25,09,48,21.30
2015,06,25,09,49,21.40
2015,06,25,09,50,21.50
2015,06,25,09,51,21.50
2015,06,25,09,52,21.60
2015,06,25,09,53,21.70
2015,06,25,09,54,21.70
2015,06,25,09,55,21.70
2015,06,25,09,56,21.80
2015,06,25,09,57,21.80
2015,06,25,09,58,21.90
2015,06,25,09,59,21.90
2015,06,25,10,00,22.00
2015,06,25,10,01,22.00
2015,06,25,10,02,22.00
2015,06,25,10,03,21.90
2015,06,25,10,04,21.90
2015,06,25,10,05,21.90
2015,06,25,10,06,21.90
2015,06,25,10,07,22.00
2015,06,25,10,08,22.00
2015,06,25,10,09,22.10
2015,06,25,10,10,22.00
2015,06,25,10,11,21.90
2015,06,25,10,12,21.80
2015,06,25,10,13,21.70
2015,06,25,10,14,21.60
2015,06,25,10,15,21.50
2015,06,25,10,16,21.50
2015,06,25,10,17,21.50
2015,06,25,10,18,21.50
2015,06,25,10,19,21.50
2015,06,25,10,20,21.60
2015,06,25,10,21,21.70
2015,06,25,10,22,21.80
2015,06,25,10,23,21.80
2015,06,25,10,24,21.90
2015,06,25,10,25,21.90
2015,06,25,10,26,21.90
2015,06,25,10,27,21.90
2015,06,25,10,28,21.90
2015,06,25,10,29,21.90
2015,06,25,10,30,22.00
2015,06,25,10,31,22.00
2015,06,25,10,32,22.10
2015,06,25,10,33,22.20
2015,06,25,10,34,22.30
2015,06,25,10,35,22.40
2015,06,25,10,36,22.50
2015,06,25,10,37,22.50
2015,06,25,10,38,22.50
2015,06,25,10,39,22.60
2015,06,25,10,40,22.60
2015,06,25,10,41,22.60
2015,06,25,10,42,22.70
2015,06,25,10,43,22.70
2015,06,25,10,44,22.70
2015,06,25,10,45,22.70
2015,06,25,10,46,22.70
2015,06,25,10,47,22.70
2015,06,25,10,48,22.70
2015,06,25,10,49,22.60
2015,06,25,10,50,22.60
2015,06,25,10,51,22.60
2015,06,25,10,52,22.70
2015,06,25,10,53,22.70
2015,06,25,10,54,22.80
2015,06,25,10,55,22.90
2015,06,25,10,56,22.90
2015,06,25,10,57,22.90
2015,06,25,10,58,23.00
2015,06,25,10,59,23.00
2015,06,25,11,00,23.00
2015,06,25,11,01,23.00
2015,06,25,11,02,23.10
2015,06,25,11,03,23.10
2015,06,25,11,04,23.30
2015,06,25,11,05,23.30
2015,06,25,11,06,23.40
2015,06,25,11,07,23.50
2015,06,25,11,08,23.60
2015,06,25,11,09,23.60
2015,06,25,11,10,23.60
2015,06,25,11,11,23.60
2015,06,25,11,12,23.50
2015,06,25,11,13,23.50
2015,06,25,11,14,23.50
2015,06,25,11,15,23.60
2015,06,25,11,16,23.60
2015,06,25,11,17,23.60
2015,06,25,11,18,23.50
2015,06,25,11,19,23.40
2015,06,25,11,20,23.40
2015,06,25,11,21,23.50
2015,06,25,11,22,23.60
2015,06,25,11,23,23.60
2015,06,25,11,24,23.70
2015,06,25,11,25,23.70
2015,06,25,11,26,23.70
2015,06,25,11,27,23.70
2015,06,25,11,28,23.70
2015,06,25,11,29,23.70
2015,06,25,11,30,23.70
2015,06,25,11,31,23.70
2015,06,25,11,32,23.70
2015,06,25,11,33,23.60
2015,06,25,11,34,23.50
2015,06,25,11,35,23.40
2015,06,25,11,36,23.40
2015,06,25,11,37,23.40
2015,06,25,11,38,23.40
2015,06,25,11,39,23.40
2015,06,25,11,40,23.30
2015,06,25,11,41,23.20
2015,06,25,11,42,23.10
2015,06,25,11,43,23.10
2015,06,25,11,44,23.10
2015,06,25,11,45,23.10
2015,06,25,11,46,23.20
2015,06,25,11,47,23.40
2015,06,25,11,48,23.50
2015,06,25,11,49,23.60
2015,06,25,11,50,23.50
2015,06,25,11,51,23.40
2015,06,25,11,52,23.30
2015,06,25,11,53,23.20
2015,06,25,11,54,23.20
2015,06,25,11,55,23.20
2015,06,25,11,56,23.10
2015,06,25,11,57,23.10
2015,06,25,11,58,23.20
2015,06,25,11,59,23.20
2015,06,25,12,00,23.30
2015,06,25,12,01,23.20
2015,06,25,12,02,23.20
2015,06,25,12,03,23.10
2015,06,25,12,04,23.10
2015,06,25,12,05,23.00
2015,06,25,12,06,23.00
2015,06,25,12,07,23.20
2015,06,25,12,08,23.20
2015,06,25,12,09,23.20
2015,06,25,12,10,23.20
2015,06,25,12,11,23.30
2015,06,25,12,12,23.30
2015,06,25,12,13,23.30
2015,06,25,12,14,23.40
2015,06,25,12,15,23.40
2015,06,25,12,16,23.30
2015,06,25,12,17,23.30
2015,06,25,12,18,23.30
2015,06,25,12,19,23.30
2015,06,25,12,20,23.30
2015,06,25,12,21,23.30
2015,06,25,12,22,23.30
2015,06,25,12,23,23.30
2015,06,25,12,24,23.30
2015,06,25,12,25,23.30
2015,06,25,12,26,23.30
2015,06,25,12,27,23.30
2015,06,25,12,28,23.40
2015,06,25,12,29,23.50
2015,06,25,12,30,23.50
2015,06,25,12,31,23.50
2015,06,25,12,32,23.60
2015,06,25,12,33,23.60
2015,06,25,12,34,23.70
2015,06,25,12,35,23.70
2015,06,25,12,36,23.80
2015,06,25,12,37,23.90
2015,06,25,12,38,24.00
2015,06,25,12,39,24.10
2015,06,25,12,40,24.10
2015,06,25,12,41,24.10
2015,06,25,12,42,24.20
2015,06,25,12,43,24.20
2015,06,25,12,44,24.20
2015,06,25,12,45,24.20
2015,06,25,12,46,24.20
2015,06,25,12,47,24.20
2015,06,25,12,48,24.20
2015,06,25,12,49,24.10
2015,06,25,12,50,24.10
2015,06,25,12,51,24.10
2015,06,25,12,52,24.00
2015,06,25,12,53,24.00
2015,06,25,12,54,24.00
2015,06,25,12,55,24.00
2015,06,25,12,56,24.10
2015,06,25,12,57,24.10
2015,06,25,12,58,24.10
2015,06,25,12,59,24.10
2015,06,25,13,00,24.10
2015,06,25,13,01,24.20
2015,06,25,13,02,24.30
2015,06,25,13,03,24.40
2015,06,25,13,04,24.40
2015,06,25,13,05,24.50
2015,06,25,13,06,24.60
2015,06,25,13,07,24.70
2015,06,25,13,08,24.80
2015,06,25,13,09,24.90
2015,06,25,13,10,25.00
2015,06,25,13,11,25.00
2015,06,25,13,12,25.10
2015,06,25,13,13,25.10
2015,06,25,13,14,25.00
2015,06,25,13,15,24.90
2015,06,25,13,16,24.90
2015,06,25,13,17,24.90
2015,06,25,13,18,25.00
2015,06,25,13,19,25.10
2015,06,25,13,20,25.20
2015,06,25,13,21,25.20
2015,06,25,13,22,25.20
2015,06,25,13,23,25.30
2015,06,25,13,24,25.40
2015,06,25,13,25,25.40
2015,06,25,13,26,25.40
2015,06,25,13,27,25.50
2015,06,25,13,28,25.70
2015,06,25,13,29,25.80
2015,06,25,13,30,26.00
2015,06,25,13,31,26.10
2015,06,25,13,32,26.10
2015,06,25,13,33,26.10
2015,06,25,13,34,26.10
2015,06,25,13,35,26.10
2015,06,25,13,36,26.20
2015,06,25,13,37,26.20
2015,06,25,13,38,26.20
2015,06,25,13,39,26.20
2015,06,25,13,40,26.30
2015,06,25,13,41,26.40
2015,06,25,13,42,26.40
2015,06,25,13,43,26.40
2015,06,25,13,44,26.30
2015,06,25,13,45,26.30
2015,06,25,13,46,26.30
2015,06,25,13,47,26.30
2015,06,25,13,48,26.40
2015,06,25,13,49,26.50
2015,06,25,13,50,26.60
2015,06,25,13,51,26.60
2015,06,25,13,52,26.60
2015,06,25,13,53,26.60
2015,06,25,13,54,26.70
2015,06,25,13,55,26.70
2015,06,25,13,56,26.70
2015,06,25,13,57,26.70
2015,06,25,13,58,26.80
2015,06,25,13,59,26.80
2015,06,25,14,00,26.80
2015,06,25,14,01,26.80
2015,06,25,14,02,26.60
2015,06,25,14,03,26.50
2015,06,25,14,04,26.40
2015,06,25,14,05,26.40
2015,06,25,14,06,26.50
2015,06,25,14,07,26.60
2015,06,25,14,08,26.60
2015,06,25,14,09,26.70
2015,06,25,14,10,26.60
2015,06,25,14,11,26.60
2015,06,25,14,12,26.50
2015,06,25,14,13,26.40
2015,06,25,14,14,26.30
2015,06,25,14,15,26.30
2015,06,25,14,16,26.30
2015,06,25,14,17,26.30
2015,06,25,14,18,26.30
2015,06,25,14,19,26.40
2015,06,25,14,20,26.40
2015,06,25,14,21,26.40
2015,06,25,14,22,26.40
2015,06,25,14,23,26.40
2015,06,25,14,24,26.50
2015,06,25,14,25,26.50
2015,06,25,14,26,26.40
2015,06,25,14,27,26.40
2015,06,25,14,28,26.30
2015,06,25,14,29,26.30
2015,06,25,14,30,26.30
2015,06,25,14,31,26.30
2015,06,25,14,32,26.20
2015,06,25,14,33,26.10
2015,06,25,14,34,25.90
2015,06,25,14,35,25.70
2015,06,25,14,36,25.60
2015,06,25,14,37,25.60
2015,06,25,14,38,25.60
2015,06,25,14,39,25.60
2015,06,25,14,40,25.60
2015,06,25,14,41,25.70
2015,06,25,14,42,25.80
2015,06,25,14,43,25.70
2015,06,25,14,44,25.70
2015,06,25,14,45,25.60
2015,06,25,14,46,25.60
2015,06,25,14,47,25.60
2015,06,25,14,48,25.50
2015,06,25,14,49,25.40
2015,06,25,14,50,25.30
2015,06,25,14,51,25.30
2015,06,25,14,52,25.20
2015,06,25,14,53,25.20
2015,06,25,14,54,25.20
2015,06,25,14,55,25.20
2015,06,25,14,56,25.10
2015,06,25,14,57,25.10
2015,06,25,14,58,25.20
2015,06,25,14,59,25.30
2015,06,25,15,00,25.30
2015,06,25,15,01,25.30
2015,06,25,15,02,25.40
2015,06,25,15,03,25.50
2015,06,25,15,04,25.60
2015,06,25,15,05,25.70
2015,06,25,15,06,25.80
2015,06,25,15,07,25.80
2015,06,25,15,08,25.80
2015,06,25,15,09,25.80
2015,06,25,15,10,25.80
2015,06,25,15,11,25.70
2015,06,25,15,12,25.70
2015,06,25,15,13,25.70
2015,06,25,15,14,25.70
2015,06,25,15,15,25.80
2015,06,25,15,16,25.80
2015,06,25,15,17,25.80
2015,06,25,15,18,25.80
2015,06,25,15,19,25.90
2015,06,25,15,20,25.90
2015,06,25,15,21,26.00
2015,06,25,15,22,26.10
2015,06,25,15,23,26.20
2015,06,25,15,24,26.30
2015,06,25,15,25,26.40
2015,06,25,15,26,26.50
2015,06,25,15,27,26.50
2015,06,25,15,28,26.60
2015,06,25,15,29,26.60
2015,06,25,15,30,26.60
2015,06,25,15,31,26.70
2015,06,25,15,32,26.70
2015,06,25,15,33,26.80
2015,06,25,15,34,26.80
2015,06,25,15,35,26.80
2015,06,25,15,36,26.70
2015,06,25,15,37,26.80
2015,06,25,15,38,26.80
2015,06,25,15,39,26.80
2015,06,25,15,40,26.70
2015,06,25,15,41,26.70
2015,06,25,15,42,26.70
2015,06,25,15,43,26.70
2015,06,25,15,44,26.60
2015,06,25,15,45,26.60
2015,06,25,15,46,26.60
2015,06,25,15,47,26.50
2015,06,25,15,48,26.50
2015,06,25,15,49,26.50
2015,06,25,15,50,26.50
2015,06,25,15,51,26.60
2015,06,25,15,52,26.60
2015,06,25,15,53,26.60
2015,06,25,15,54,26.60
2015,06,25,15,55,26.60
2015,06,25,15,56,26.60
2015,06,25,15,57,26.60
2015,06,25,15,58,26.60
2015,06,25,15,59,26.60
2015,06,25,16,00,26.60
2015,06,25,16,01,26.60
2015,06,25,16,02,26.60
2015,06,25,16,03,26.70
2015,06,25,16,04,26.70
2015,06,25,16,05,26.70
2015,06,25,16,06,26.70
2015,06,25,16,07,26.70
2015,06,25,16,08,26.70
2015,06,25,16,09,26.80
2015,06,25,16,10,26.80
2015,06,25,16,11,26.80
2015,06,25,16,12,26.80
2015,06,25,16,13,26.80
2015,06,25,16,14,26.80
2015,06,25,16,15,26.80
2015,06,25,16,16,26.80
2015,06,25,16,17,26.80
2015,06,25,16,18,26.70
2015,06,25,16,19,26.70
2015,06,25,16,20,26.80
2015,06,25,16,21,26.80
2015,06,25,16,22,26.80
2015,06,25,16,23,26.80
2015,06,25,16,24,26.80
2015,06,25,16,25,26.80
2015,06,25,16,26,26.70
2015,06,25,16,27,26.70
2015,06,25,16,28,26.70
2015,06,25,16,29,26.70
2015,06,25,16,30,26.70
2015,06,25,16,31,26.70
2015,06,25,16,32,26.70
2015,06,25,16,33,26.70
2015,06,25,16,34,26.70
2015,06,25,16,35,26.70
2015,06,25,16,36,26.60
2015,06,25,16,37,26.60
2015,06,25,16,38,26.60
2015,06,25,16,39,26.60
2015,06,25,16,40,26.50
2015,06,25,16,41,26.50
2015,06,25,16,42,26.50
2015,06,25,16,43,26.60
2015,06,25,16,44,26.60
2015,06,25,16,45,26.60
2015,06,25,16,46,26.60
2015,06,25,16,47,26.60
2015,06,25,16,48,26.60
2015,06,25,16,49,26.60
2015,06,25,16,50,26.60
2015,06,25,16,51,26.60
2015,06,25,16,52,26.60
2015,06,25,16,53,26.60
2015,06,25,16,54,26.50
2015,06,25,16,55,26.50
2015,06,25,16,56,26.50
2015,06,25,16,57,26.50
2015,06,25,16,58,26.40
2015,06,25,16,59,26.40
2015,06,25,17,00,26.40
2015,06,25,17,01,26.40
2015,06,25,17,02,26.40
2015,06,25,17,03,26.40
2015,06,25,17,04,26.40
2015,06,25,17,05,26.50
2015,06,25,17,06,26.60
2015,06,25,17,07,26.60
2015,06,25,17,08,26.70
2015,06,25,17,09,26.70
2015,06,25,17,10,26.70
2015,06,25,17,11,26.80
2015,06,25,17,12,26.80
2015,06,25,17,13,26.90
2015,06,25,17,14,27.00
2015,06,25,17,15,27.00
2015,06,25,17,16,27.10
2015,06,25,17,17,27.10
2015,06,25,17,18,27.10
2015,06,25,17,19,27.10